status,avgMeasuredTime,avgSpeed,extID,medianMeasuredTime,TIMESTAMP,vehicleCount,_id,REPORT_ID
OK,36,51,969,36,2014-08-01T08:00:00,1,20747024,195499
OK,80,23,969,80,2014-08-01T08:10:00,1,20747846,195499
OK,93,19,969,93,2014-08-01T08:15:00,1,20748295,195499
OK,93,19,969,93,2014-08-01T08:20:00,1,20748744,195499
OK,84,22,969,84,2014-08-01T08:25:00,1,20749193,195499
OK,57,32,969,57,2014-08-01T08:30:00,4,20749642,195499
OK,57,32,969,57,2014-08-01T08:35:00,4,20750091,195499
OK,86,21,969,86,2014-08-01T08:40:00,1,20750540,195499
OK,86,21,969,86,2014-08-01T08:45:00,0,20750989,195499
OK,86,21,969,86,2014-08-01T08:50:00,0,20751438,195499
OK,86,21,969,86,2014-08-01T08:55:00,0,20751887,195499
OK,38,48,969,38,2014-08-01T09:00:00,1,20752336,195499
OK,38,48,969,38,2014-08-01T09:05:00,1,20752785,195499
OK,37,50,969,37,2014-08-01T09:10:00,1,20753234,195499
OK,33,56,969,33,2014-08-01T09:20:00,1,20754132,195499
OK,33,56,969,33,2014-08-01T09:25:00,0,20754581,195499
OK,33,56,969,33,2014-08-01T09:30:00,0,20755030,195499
OK,33,56,969,33,2014-08-01T09:35:00,0,20755479,195499
OK,119,15,969,119,2014-08-01T09:40:00,1,20755928,195499
OK,119,15,969,119,2014-08-01T09:45:00,1,20756377,195499
OK,51,36,969,51,2014-08-01T09:50:00,2,20756826,195499
OK,51,36,969,51,2014-08-01T09:55:00,2,20757275,195499
OK,38,48,969,38,2014-08-01T10:00:00,1,20757724,195499
OK,38,48,969,38,2014-08-01T10:05:00,1,20758173,195499
OK,38,48,969,38,2014-08-01T10:15:00,0,20759071,195499
OK,75,24,969,75,2014-08-01T10:20:00,1,20759520,195499
OK,75,24,969,75,2014-08-01T10:25:00,1,20759969,195499
OK,75,24,969,75,2014-08-01T10:30:00,0,20760418,195499
OK,57,32,969,57,2014-08-01T10:35:00,1,20760867,195499
OK,70,26,969,70,2014-08-01T10:40:00,2,20761316,195499
OK,83,22,969,83,2014-08-01T10:45:00,1,20761765,195499
OK,83,22,969,83,2014-08-01T10:50:00,0,20762214,195499
OK,95,19,969,95,2014-08-01T10:55:00,1,20762663,195499
OK,95,19,969,95,2014-08-01T11:00:00,1,20763112,195499
OK,95,19,969,95,2014-08-01T11:05:00,0,20763561,195499
OK,95,19,969,95,2014-08-01T11:10:00,0,20764010,195499
OK,92,20,969,92,2014-08-01T11:20:00,1,20764907,195499
OK,76,24,969,76,2014-08-01T11:25:00,2,20765356,195499
OK,56,33,969,56,2014-08-01T11:30:00,2,20765805,195499
OK,53,34,969,53,2014-08-01T11:35:00,1,20766254,195499
OK,53,34,969,53,2014-08-01T11:40:00,0,20766703,195499
OK,53,34,969,53,2014-08-01T11:45:00,0,20767152,195499
OK,53,34,969,53,2014-08-01T11:50:00,0,20767601,195499
OK,53,34,969,53,2014-08-01T11:55:00,0,20768050,195499
OK,53,34,969,53,2014-08-01T12:00:00,0,20768499,195499
OK,97,19,969,97,2014-08-01T12:10:00,1,20769397,195499
OK,97,19,969,97,2014-08-01T12:15:00,1,20769846,195499
OK,69,26,969,69,2014-08-01T12:20:00,1,20770295,195499
OK,63,29,969,63,2014-08-01T12:25:00,2,20770744,195499
OK,57,32,969,57,2014-08-01T12:30:00,1,20771193,195499
OK,62,29,969,62,2014-08-01T12:35:00,1,20771642,195499
OK,74,25,969,74,2014-08-01T12:40:00,2,20772091,195499
OK,74,25,969,74,2014-08-01T12:45:00,2,20772540,195499
OK,61,30,969,61,2014-08-01T12:50:00,1,20772989,195499
OK,64,28,969,64,2014-08-01T12:55:00,3,20773438,195499
OK,63,29,969,63,2014-08-01T13:00:00,1,20773887,195499
OK,63,29,969,63,2014-08-01T13:05:00,0,20774336,195499
OK,63,29,969,63,2014-08-01T13:10:00,0,20774785,195499
OK,63,29,969,63,2014-08-01T13:15:00,0,20775234,195499
OK,63,29,969,63,2014-08-01T13:20:00,0,20775683,195499
OK,63,29,969,63,2014-08-01T13:25:00,0,20776132,195499
OK,63,29,969,63,2014-08-01T13:30:00,0,20776581,195499
OK,63,29,969,63,2014-08-01T13:35:00,0,20777030,195499
OK,63,29,969,63,2014-08-01T13:40:00,0,20777479,195499
OK,70,26,969,70,2014-08-01T13:45:00,1,20777928,195499
OK,101,18,969,101,2014-08-01T13:50:00,2,20778377,195499
OK,132,14,969,132,2014-08-01T14:00:00,0,20779275,195499
OK,74,25,969,74,2014-08-01T14:05:00,1,20779724,195499
OK,74,25,969,74,2014-08-01T14:10:00,1,20780173,195499
OK,61,30,969,61,2014-08-01T14:15:00,1,20780622,195499
OK,61,30,969,61,2014-08-01T14:20:00,1,20781071,195499
OK,116,15,969,116,2014-08-01T14:25:00,1,20781520,195499
OK,116,15,969,116,2014-08-01T14:30:00,1,20781969,195499
OK,67,27,969,67,2014-08-01T14:35:00,1,20782418,195499
OK,67,27,969,67,2014-08-01T14:40:00,3,20782867,195499
OK,69,26,969,69,2014-08-01T14:45:00,2,20783316,195499
OK,45,41,969,45,2014-08-01T14:50:00,0,20783765,195499
OK,45,41,969,45,2014-08-01T15:00:00,0,20784663,195499
OK,45,41,969,45,2014-08-01T15:05:00,0,20785112,195499
OK,45,41,969,45,2014-08-01T15:10:00,0,20785561,195499
OK,45,41,969,45,2014-08-01T15:15:00,0,20786010,195499
OK,45,41,969,45,2014-08-01T15:20:00,0,20786459,195499
OK,83,22,969,83,2014-08-01T15:25:00,1,20786908,195499
OK,62,29,969,62,2014-08-01T15:30:00,2,20787357,195499
OK,42,44,969,42,2014-08-01T15:35:00,1,20787806,195499
OK,42,44,969,42,2014-08-01T15:40:00,0,20788255,195499
OK,63,29,969,63,2014-08-01T15:45:00,1,20788704,195499
OK,89,20,969,89,2014-08-01T15:50:00,2,20789153,195499
OK,116,15,969,116,2014-08-01T15:55:00,1,20789602,195499
OK,116,15,969,116,2014-08-01T16:00:00,0,20790051,195499
OK,116,15,969,116,2014-08-01T16:05:00,0,20790500,195499
OK,116,15,969,116,2014-08-01T16:10:00,0,20790949,195499
OK,116,15,969,116,2014-08-01T16:15:00,0,20791398,195499
OK,116,15,969,116,2014-08-01T16:20:00,0,20791847,195499
OK,116,15,969,116,2014-08-01T16:25:00,0,20792296,195499
OK,94,19,969,94,2014-08-01T16:30:00,1,20792745,195499
OK,94,19,969,94,2014-08-01T16:35:00,1,20793194,195499
OK,94,19,969,94,2014-08-01T16:40:00,0,20793643,195499
OK,115,16,969,115,2014-08-01T16:45:00,1,20794092,195499
OK,115,16,969,115,2014-08-01T16:50:00,1,20794541,195499
OK,115,16,969,115,2014-08-01T16:55:00,0,20794990,195499
OK,115,16,969,115,2014-08-01T17:00:00,0,20795439,195499
OK,115,16,969,115,2014-08-01T17:05:00,0,20795888,195499
OK,115,16,969,115,2014-08-01T17:10:00,1,20796337,195499
OK,115,16,969,115,2014-08-01T17:15:00,0,20796786,195499
OK,115,16,969,115,2014-08-01T17:20:00,0,20797235,195499
OK,115,16,969,115,2014-08-01T17:25:00,0,20797684,195499
OK,115,16,969,115,2014-08-01T17:30:00,0,20798133,195499
OK,41,45,969,41,2014-08-01T17:35:00,1,20798582,195499
OK,41,45,969,41,2014-08-01T17:40:00,0,20799031,195499
OK,101,18,969,101,2014-08-01T17:45:00,1,20799480,195499
OK,101,18,969,101,2014-08-01T17:50:00,1,20799929,195499
OK,101,18,969,101,2014-08-01T17:55:00,0,20800378,195499
OK,101,18,969,101,2014-08-01T18:00:00,0,20800827,195499
OK,101,18,969,101,2014-08-01T18:05:00,0,20801276,195499
OK,101,18,969,101,2014-08-01T18:10:00,0,20801725,195499
OK,101,18,969,101,2014-08-01T18:15:00,0,20802174,195499
OK,101,18,969,101,2014-08-01T18:20:00,0,20802623,195499
OK,101,18,969,101,2014-08-01T18:25:00,0,20803072,195499
OK,101,18,969,101,2014-08-01T18:30:00,0,20803521,195499
OK,101,18,969,101,2014-08-01T18:35:00,0,20803970,195499
OK,101,18,969,101,2014-08-01T18:40:00,0,20804419,195499
OK,101,18,969,101,2014-08-01T18:45:00,0,20804868,195499
OK,101,18,969,101,2014-08-01T18:50:00,0,20805317,195499
OK,101,18,969,101,2014-08-01T18:55:00,0,20805766,195499
OK,101,18,969,101,2014-08-01T19:00:00,0,20806215,195499
OK,101,18,969,101,2014-08-01T19:05:00,0,20806664,195499
OK,101,18,969,101,2014-08-01T19:10:00,0,20807113,195499
OK,101,18,969,101,2014-08-01T19:15:00,0,20807562,195499
OK,101,18,969,101,2014-08-01T19:20:00,0,20808011,195499
OK,101,18,969,101,2014-08-01T19:25:00,0,20808460,195499
OK,101,18,969,101,2014-08-01T19:30:00,0,20808909,195499
OK,101,18,969,101,2014-08-01T19:35:00,0,20809358,195499
OK,101,18,969,101,2014-08-01T19:40:00,0,20809807,195499
OK,101,18,969,101,2014-08-01T19:45:00,0,20810256,195499
OK,101,18,969,101,2014-08-01T19:50:00,0,20810705,195499
OK,101,18,969,101,2014-08-01T19:55:00,0,20811154,195499
OK,101,18,969,101,2014-08-01T22:00:00,0,20816883,195499
OK,101,18,969,101,2014-08-02T00:00:00,0,20823322,195499
OK,101,18,969,101,2014-08-02T00:05:00,0,20823771,195499
OK,101,18,969,101,2014-08-02T00:10:00,0,20824220,195499
OK,101,18,969,101,2014-08-02T00:15:00,0,20824669,195499
OK,101,18,969,101,2014-08-02T00:20:00,0,20825118,195499
OK,101,18,969,101,2014-08-02T00:25:00,0,20825567,195499
OK,101,18,969,101,2014-08-02T00:30:00,0,20826016,195499
OK,101,18,969,101,2014-08-02T00:35:00,0,20826465,195499
OK,101,18,969,101,2014-08-02T00:40:00,0,20826914,195499
OK,101,18,969,101,2014-08-02T00:45:00,0,20827363,195499
OK,101,18,969,101,2014-08-02T00:50:00,0,20827812,195499
OK,101,18,969,101,2014-08-02T00:55:00,0,20828261,195499
OK,101,18,969,101,2014-08-02T01:00:00,0,20828710,195499
OK,101,18,969,101,2014-08-02T01:05:00,0,20829159,195499
OK,101,18,969,101,2014-08-02T01:10:00,0,20829608,195499
OK,101,18,969,101,2014-08-02T01:15:00,0,20830057,195499
OK,101,18,969,101,2014-08-02T01:20:00,0,20830506,195499
OK,101,18,969,101,2014-08-02T01:25:00,0,20830955,195499
OK,101,18,969,101,2014-08-02T01:30:00,0,20831404,195499
OK,101,18,969,101,2014-08-02T01:35:00,0,20831853,195499
OK,101,18,969,101,2014-08-02T01:40:00,0,20832302,195499
OK,101,18,969,101,2014-08-02T01:45:00,0,20832751,195499
OK,101,18,969,101,2014-08-02T01:50:00,0,20833200,195499
OK,101,18,969,101,2014-08-02T01:55:00,0,20833649,195499
OK,101,18,969,101,2014-08-02T02:00:00,0,20834098,195499
OK,101,18,969,101,2014-08-02T02:05:00,0,20834547,195499
OK,101,18,969,101,2014-08-02T02:10:00,0,20834996,195499
OK,101,18,969,101,2014-08-02T02:15:00,0,20835445,195499
OK,101,18,969,101,2014-08-02T02:20:00,0,20835894,195499
OK,101,18,969,101,2014-08-02T02:25:00,0,20836343,195499
OK,101,18,969,101,2014-08-02T02:30:00,0,20836792,195499
OK,101,18,969,101,2014-08-02T02:35:00,0,20837241,195499
OK,101,18,969,101,2014-08-02T02:40:00,0,20837690,195499
OK,101,18,969,101,2014-08-02T02:45:00,0,20838139,195499
OK,101,18,969,101,2014-08-02T02:50:00,0,20838588,195499
OK,101,18,969,101,2014-08-02T02:55:00,0,20839037,195499
OK,101,18,969,101,2014-08-02T03:00:00,0,20839486,195499
OK,101,18,969,101,2014-08-02T03:05:00,0,20839935,195499
OK,101,18,969,101,2014-08-02T03:10:00,0,20840384,195499
OK,101,18,969,101,2014-08-02T03:15:00,0,20840833,195499
OK,101,18,969,101,2014-08-02T03:20:00,0,20841282,195499
OK,101,18,969,101,2014-08-02T03:25:00,0,20841731,195499
OK,101,18,969,101,2014-08-02T03:30:00,0,20842180,195499
OK,101,18,969,101,2014-08-02T03:35:00,0,20842629,195499
OK,101,18,969,101,2014-08-02T03:40:00,0,20843078,195499
OK,101,18,969,101,2014-08-02T03:45:00,0,20843527,195499
OK,101,18,969,101,2014-08-02T03:50:00,0,20843976,195499
OK,101,18,969,101,2014-08-02T03:55:00,0,20844425,195499
OK,101,18,969,101,2014-08-02T06:00:00,0,20851879,195499
OK,101,18,969,101,2014-08-02T06:05:00,0,20852328,195499
OK,101,18,969,101,2014-08-02T06:10:00,0,20852777,195499
OK,101,18,969,101,2014-08-02T06:15:00,0,20853226,195499
OK,101,18,969,101,2014-08-02T06:20:00,0,20853675,195499
OK,101,18,969,101,2014-08-02T06:25:00,0,20854124,195499
OK,101,18,969,101,2014-08-02T06:30:00,0,20854573,195499
OK,101,18,969,101,2014-08-02T06:35:00,0,20855022,195499
OK,101,18,969,101,2014-08-02T06:40:00,0,20855471,195499
OK,101,18,969,101,2014-08-02T06:45:00,0,20855920,195499
OK,101,18,969,101,2014-08-02T06:50:00,0,20856369,195499
OK,101,18,969,101,2014-08-02T06:55:00,0,20856818,195499
OK,101,18,969,101,2014-08-02T07:00:00,0,20857267,195499
OK,101,18,969,101,2014-08-02T07:05:00,0,20857716,195499
OK,101,18,969,101,2014-08-02T07:10:00,0,20858165,195499
OK,101,18,969,101,2014-08-02T07:15:00,0,20858614,195499
OK,101,18,969,101,2014-08-02T07:20:00,0,20859063,195499
OK,101,18,969,101,2014-08-02T07:25:00,0,20859512,195499
OK,101,18,969,101,2014-08-02T07:30:00,0,20859961,195499
OK,101,18,969,101,2014-08-02T07:35:00,0,20860410,195499
OK,101,18,969,101,2014-08-02T07:40:00,0,20860859,195499
OK,101,18,969,101,2014-08-02T07:45:00,0,20861308,195499
OK,101,18,969,101,2014-08-02T07:50:00,0,20861757,195499
OK,101,18,969,101,2014-08-02T07:55:00,0,20862206,195499
OK,101,18,969,101,2014-08-02T08:00:00,0,20862655,195499
OK,101,18,969,101,2014-08-02T08:05:00,0,20863104,195499
OK,79,23,969,79,2014-08-02T08:10:00,2,20863553,195499
OK,124,14,969,124,2014-08-02T08:15:00,1,20864002,195499
OK,124,14,969,124,2014-08-02T08:20:00,0,20864451,195499
OK,61,30,969,61,2014-08-02T08:25:00,1,20864900,195499
OK,66,28,969,66,2014-08-02T08:30:00,4,20865349,195499
OK,71,26,969,71,2014-08-02T08:35:00,3,20865798,195499
OK,41,45,969,41,2014-08-02T08:40:00,0,20866247,195499
OK,67,27,969,67,2014-08-02T08:45:00,1,20866696,195499
OK,67,27,969,67,2014-08-02T08:50:00,0,20867145,195499
OK,91,20,969,91,2014-08-02T08:55:00,1,20867594,195499
OK,91,20,969,91,2014-08-02T09:00:00,1,20868043,195499
OK,91,20,969,91,2014-08-02T09:05:00,0,20868492,195499
OK,91,20,969,91,2014-08-02T09:10:00,0,20868941,195499
OK,48,38,969,48,2014-08-02T09:15:00,1,20869390,195499
OK,48,38,969,48,2014-08-02T09:20:00,1,20869839,195499
OK,48,38,969,48,2014-08-02T09:25:00,0,20870288,195499
OK,48,38,969,48,2014-08-02T09:30:00,0,20870737,195499
OK,37,50,969,37,2014-08-02T09:35:00,1,20871186,195499
OK,37,50,969,37,2014-08-02T09:40:00,1,20871635,195499
OK,37,50,969,37,2014-08-02T09:45:00,0,20872084,195499
OK,37,50,969,37,2014-08-02T09:50:00,0,20872533,195499
OK,40,46,969,40,2014-08-02T09:55:00,1,20872982,195499
OK,40,46,969,40,2014-08-02T10:00:00,1,20873431,195499
OK,123,15,969,123,2014-08-02T10:05:00,1,20873880,195499
OK,104,17,969,104,2014-08-02T10:10:00,4,20874329,195499
OK,86,21,969,86,2014-08-02T10:15:00,3,20874778,195499
OK,86,21,969,86,2014-08-02T10:20:00,0,20875227,195499
OK,86,21,969,86,2014-08-02T10:25:00,0,20875676,195499
OK,86,21,969,86,2014-08-02T10:30:00,0,20876125,195499
OK,86,21,969,86,2014-08-02T10:35:00,0,20876574,195499
OK,68,27,969,68,2014-08-02T10:40:00,1,20877023,195499
OK,68,27,969,68,2014-08-02T10:45:00,1,20877472,195499
OK,116,15,969,116,2014-08-02T10:50:00,1,20877921,195499
OK,79,23,969,79,2014-08-02T10:55:00,2,20878370,195499
OK,40,46,969,40,2014-08-02T11:00:00,2,20878819,195499
OK,38,48,969,38,2014-08-02T11:05:00,1,20879268,195499
OK,38,48,969,38,2014-08-02T11:10:00,0,20879717,195499
OK,38,48,969,38,2014-08-02T11:15:00,0,20880166,195499
OK,82,22,969,82,2014-08-02T11:20:00,3,20880615,195499
OK,82,22,969,82,2014-08-02T11:25:00,3,20881064,195499
OK,82,22,969,82,2014-08-02T11:30:00,0,20881513,195499
OK,82,22,969,82,2014-08-02T11:35:00,0,20881962,195499
OK,82,22,969,82,2014-08-02T11:40:00,0,20882411,195499
OK,82,22,969,82,2014-08-02T11:45:00,0,20882860,195499
OK,82,22,969,82,2014-08-02T11:50:00,0,20883309,195499
OK,72,25,969,72,2014-08-02T11:55:00,2,20883758,195499
OK,72,25,969,72,2014-08-02T12:00:00,2,20884207,195499
OK,93,19,969,93,2014-08-02T12:05:00,0,20884656,195499
OK,137,13,969,137,2014-08-02T12:10:00,1,20885105,195499
OK,99,18,969,99,2014-08-02T12:15:00,1,20885554,195499
OK,99,18,969,99,2014-08-02T12:20:00,1,20886003,195499
OK,74,25,969,74,2014-08-02T12:25:00,1,20886452,195499
OK,74,25,969,74,2014-08-02T12:30:00,1,20886901,195499
OK,74,25,969,74,2014-08-02T12:35:00,0,20887350,195499
OK,74,25,969,74,2014-08-02T12:40:00,0,20887799,195499
OK,74,25,969,74,2014-08-02T12:45:00,0,20888248,195499
OK,78,23,969,78,2014-08-02T12:50:00,2,20888697,195499
OK,89,20,969,89,2014-08-02T12:55:00,2,20889146,195499
OK,95,19,969,95,2014-08-02T13:00:00,1,20889595,195499
OK,52,35,969,52,2014-08-02T13:05:00,1,20890044,195499
OK,52,35,969,52,2014-08-02T13:10:00,1,20890493,195499
OK,52,35,969,52,2014-08-02T13:15:00,0,20890942,195499
OK,52,35,969,52,2014-08-02T13:20:00,0,20891391,195499
OK,52,35,969,52,2014-08-02T13:25:00,0,20891840,195499
OK,52,35,969,52,2014-08-02T13:30:00,0,20892289,195499
OK,52,35,969,52,2014-08-02T13:35:00,0,20892738,195499
OK,111,16,969,111,2014-08-02T13:40:00,1,20893187,195499
OK,111,16,969,111,2014-08-02T13:45:00,1,20893636,195499
OK,61,30,969,61,2014-08-02T13:50:00,1,20894085,195499
OK,61,30,969,61,2014-08-02T13:55:00,1,20894534,195499
OK,61,30,969,61,2014-08-02T14:00:00,0,20894983,195499
OK,61,30,969,61,2014-08-02T14:05:00,0,20895432,195499
OK,61,30,969,61,2014-08-02T14:10:00,0,20895881,195499
OK,61,30,969,61,2014-08-02T14:15:00,0,20896330,195499
OK,61,30,969,61,2014-08-02T14:20:00,0,20896779,195499
OK,61,30,969,61,2014-08-02T14:25:00,0,20897228,195499
OK,61,30,969,61,2014-08-02T14:30:00,0,20897677,195499
OK,61,30,969,61,2014-08-02T14:35:00,0,20898126,195499
OK,61,30,969,61,2014-08-02T14:40:00,0,20898575,195499
OK,61,30,969,61,2014-08-02T14:45:00,0,20899024,195499
OK,61,30,969,61,2014-08-02T14:50:00,0,20899473,195499
OK,37,50,969,37,2014-08-02T14:55:00,1,20899922,195499
OK,43,43,969,43,2014-08-02T15:00:00,2,20900371,195499
OK,49,37,969,49,2014-08-02T15:05:00,0,20900820,195499
OK,107,17,969,107,2014-08-02T15:10:00,1,20901269,195499
OK,107,17,969,107,2014-08-02T15:15:00,0,20901718,195499
OK,107,17,969,107,2014-08-02T15:20:00,0,20902167,195499
OK,41,45,969,41,2014-08-02T15:25:00,3,20902616,195499
OK,90,20,969,90,2014-08-02T15:30:00,1,20903065,195499
OK,90,20,969,90,2014-08-02T15:35:00,0,20903514,195499
OK,90,20,969,90,2014-08-02T15:40:00,0,20903963,195499
OK,90,20,969,90,2014-08-02T15:45:00,0,20904412,195499
OK,90,20,969,90,2014-08-02T15:50:00,0,20904861,195499
OK,90,20,969,90,2014-08-02T15:55:00,0,20905310,195499
OK,90,20,969,90,2014-08-02T16:00:00,0,20905759,195499
OK,90,20,969,90,2014-08-02T16:05:00,0,20906208,195499
OK,80,23,969,80,2014-08-02T16:10:00,1,20906657,195499
OK,80,23,969,80,2014-08-02T16:15:00,1,20907106,195499
OK,80,23,969,80,2014-08-02T16:20:00,0,20907555,195499
OK,80,23,969,80,2014-08-02T16:25:00,0,20908004,195499
OK,86,21,969,86,2014-08-02T16:30:00,1,20908453,195499
OK,84,22,969,84,2014-08-02T16:35:00,3,20908902,195499
OK,64,28,969,64,2014-08-02T16:40:00,2,20909351,195499
OK,84,22,969,84,2014-08-02T16:45:00,0,20909800,195499
OK,55,33,969,55,2014-08-02T16:50:00,1,20910249,195499
OK,55,33,969,55,2014-08-02T16:55:00,1,20910698,195499
OK,55,33,969,55,2014-08-02T17:00:00,0,20911147,195499
OK,55,33,969,55,2014-08-02T17:05:00,0,20911596,195499
OK,55,33,969,55,2014-08-02T17:10:00,0,20912045,195499
OK,55,33,969,55,2014-08-02T17:15:00,0,20912494,195499
OK,55,33,969,55,2014-08-02T17:20:00,0,20912943,195499
OK,55,33,969,55,2014-08-02T17:25:00,0,20913392,195499
OK,55,33,969,55,2014-08-02T17:30:00,0,20913841,195499
OK,55,33,969,55,2014-08-02T17:35:00,0,20914290,195499
OK,55,33,969,55,2014-08-02T17:40:00,0,20914739,195499
OK,55,33,969,55,2014-08-02T17:45:00,0,20915188,195499
OK,55,33,969,55,2014-08-02T17:50:00,0,20915637,195499
OK,55,33,969,55,2014-08-02T17:55:00,0,20916086,195499
OK,55,33,969,55,2014-08-02T18:00:00,0,20916535,195499
OK,55,33,969,55,2014-08-02T18:05:00,0,20916984,195499
OK,55,33,969,55,2014-08-02T18:10:00,0,20917433,195499
OK,55,33,969,55,2014-08-02T18:15:00,0,20917882,195499
OK,55,33,969,55,2014-08-02T18:20:00,0,20918331,195499
OK,55,33,969,55,2014-08-02T18:25:00,0,20918780,195499
OK,91,20,969,91,2014-08-02T18:30:00,1,20919229,195499
OK,91,20,969,91,2014-08-02T18:35:00,1,20919678,195499
OK,91,20,969,91,2014-08-02T18:40:00,0,20920127,195499
OK,91,20,969,91,2014-08-02T18:45:00,0,20920576,195499
OK,70,26,969,70,2014-08-02T18:50:00,1,20921025,195499
OK,70,26,969,70,2014-08-02T18:55:00,0,20921474,195499
OK,70,26,969,70,2014-08-02T19:00:00,0,20921923,195499
OK,70,26,969,70,2014-08-02T19:05:00,0,20922372,195499
OK,70,26,969,70,2014-08-02T19:10:00,0,20922821,195499
OK,70,26,969,70,2014-08-02T19:15:00,0,20923270,195499
OK,70,26,969,70,2014-08-02T19:20:00,0,20923719,195499
OK,104,17,969,104,2014-08-02T19:25:00,1,20924168,195499
OK,104,17,969,104,2014-08-02T19:30:00,1,20924617,195499
OK,70,26,969,70,2014-08-02T19:35:00,1,20925066,195499
OK,60,30,969,60,2014-08-02T19:40:00,1,20925515,195499
OK,105,17,969,105,2014-08-02T19:45:00,1,20925964,195499
OK,105,17,969,105,2014-08-02T19:50:00,1,20926413,195499
OK,105,17,969,105,2014-08-02T19:55:00,0,20926862,195499
OK,38,48,969,38,2014-08-02T20:00:00,1,20927311,195499
OK,38,48,969,38,2014-08-02T20:05:00,1,20927760,195499
OK,38,48,969,38,2014-08-02T20:10:00,0,20928209,195499
OK,38,48,969,38,2014-08-02T20:15:00,0,20928658,195499
OK,38,48,969,38,2014-08-02T20:20:00,0,20929107,195499
OK,38,48,969,38,2014-08-02T20:25:00,0,20929556,195499
OK,38,48,969,38,2014-08-02T20:30:00,0,20930005,195499
OK,38,48,969,38,2014-08-02T20:35:00,0,20930454,195499
OK,38,48,969,38,2014-08-02T20:40:00,0,20930903,195499
OK,38,48,969,38,2014-08-02T20:45:00,0,20931352,195499
OK,38,48,969,38,2014-08-02T20:50:00,0,20931801,195499
OK,38,48,969,38,2014-08-02T20:55:00,0,20932250,195499
OK,93,19,969,93,2014-08-02T21:00:00,1,20932699,195499
OK,93,19,969,93,2014-08-02T21:05:00,1,20933148,195499
OK,93,19,969,93,2014-08-02T21:10:00,0,20933597,195499
OK,93,19,969,93,2014-08-02T21:15:00,0,20934046,195499
OK,93,19,969,93,2014-08-02T21:20:00,0,20934495,195499
OK,93,19,969,93,2014-08-02T21:25:00,0,20934944,195499
OK,93,19,969,93,2014-08-02T21:30:00,0,20935393,195499
OK,93,19,969,93,2014-08-02T21:35:00,0,20935842,195499
OK,93,19,969,93,2014-08-02T21:40:00,0,20936291,195499
OK,93,19,969,93,2014-08-02T21:45:00,0,20936740,195499
OK,93,19,969,93,2014-08-02T21:50:00,0,20937189,195499
OK,93,19,969,93,2014-08-02T21:55:00,0,20937638,195499
OK,93,19,969,93,2014-08-02T22:00:00,0,20938087,195499
OK,93,19,969,93,2014-08-02T22:05:00,0,20938536,195499
OK,93,19,969,93,2014-08-02T22:10:00,0,20938985,195499
OK,57,32,969,57,2014-08-02T22:15:00,1,20939434,195499
OK,57,32,969,57,2014-08-02T22:20:00,0,20939883,195499
OK,57,32,969,57,2014-08-02T22:25:00,0,20940332,195499
OK,57,32,969,57,2014-08-02T22:30:00,0,20940781,195499
OK,57,32,969,57,2014-08-02T22:35:00,0,20941230,195499
OK,57,32,969,57,2014-08-02T22:40:00,0,20941679,195499
OK,152,12,969,152,2014-08-02T22:45:00,1,20942128,195499
OK,57,32,969,57,2014-08-02T22:50:00,0,20942577,195499
OK,57,32,969,57,2014-08-02T22:55:00,0,20943026,195499
OK,57,32,969,57,2014-08-02T23:00:00,0,20943475,195499
OK,68,27,969,68,2014-08-02T23:10:00,2,20943924,195499
OK,68,27,969,68,2014-08-02T23:15:00,0,20944373,195499
OK,68,27,969,68,2014-08-02T23:20:00,0,20944822,195499
OK,68,27,969,68,2014-08-02T23:25:00,0,20945271,195499
OK,68,27,969,68,2014-08-02T23:30:00,0,20945720,195499
OK,68,27,969,68,2014-08-02T23:35:00,0,20946169,195499
OK,68,27,969,68,2014-08-02T23:40:00,0,20946618,195499
OK,68,27,969,68,2014-08-02T23:45:00,0,20947067,195499
OK,68,27,969,68,2014-08-02T23:50:00,0,20947516,195499
OK,68,27,969,68,2014-08-02T23:55:00,0,20947965,195499
OK,68,27,969,68,2014-08-03T00:00:00,0,20948414,195499
OK,68,27,969,68,2014-08-03T00:05:00,0,20948863,195499
OK,68,27,969,68,2014-08-03T00:10:00,0,20949311,195499
OK,68,27,969,68,2014-08-03T00:15:00,0,20949760,195499
OK,68,27,969,68,2014-08-03T00:20:00,0,20950209,195499
OK,68,27,969,68,2014-08-03T00:25:00,0,20950658,195499
OK,68,27,969,68,2014-08-03T00:30:00,0,20951107,195499
OK,68,27,969,68,2014-08-03T00:35:00,0,20951556,195499
OK,68,27,969,68,2014-08-03T00:40:00,0,20952005,195499
OK,68,27,969,68,2014-08-03T00:45:00,0,20952454,195499
OK,68,27,969,68,2014-08-03T00:50:00,0,20952903,195499
OK,68,27,969,68,2014-08-03T00:55:00,0,20953352,195499
OK,68,27,969,68,2014-08-03T01:00:00,0,20953801,195499
OK,68,27,969,68,2014-08-03T01:05:00,0,20954250,195499
OK,68,27,969,68,2014-08-03T01:10:00,0,20954699,195499
OK,68,27,969,68,2014-08-03T01:15:00,0,20955148,195499
OK,68,27,969,68,2014-08-03T01:20:00,0,20955597,195499
OK,68,27,969,68,2014-08-03T01:25:00,0,20956046,195499
OK,68,27,969,68,2014-08-03T01:30:00,0,20956495,195499
OK,68,27,969,68,2014-08-03T01:35:00,0,20956944,195499
OK,68,27,969,68,2014-08-03T01:40:00,0,20957393,195499
OK,68,27,969,68,2014-08-03T01:45:00,0,20957842,195499
OK,68,27,969,68,2014-08-03T01:50:00,0,20958291,195499
OK,68,27,969,68,2014-08-03T01:55:00,0,20958740,195499
OK,68,27,969,68,2014-08-03T02:00:00,0,20959189,195499
OK,68,27,969,68,2014-08-03T02:05:00,0,20959638,195499
OK,68,27,969,68,2014-08-03T02:10:00,0,20960087,195499
OK,68,27,969,68,2014-08-03T02:15:00,0,20960536,195499